Weather History for KHRO - August, 2012

Change the Weather History Date:

Wednesday, August 8, 2012

  Actual Average Record
Temperature  
Mean Temperature 84 °F 79 °F  
Max Temperature 98 °F 90 °F 109 °F (1934)
Min Temperature 70 °F 68 °F 51 °F (1989)
Degree Days  
Heating Degree Days 0 0  
Month to date heating degree days 0 0  
Since 1 June heating degree days 5 6  
Since 1 July heating degree days 0 0  
Cooling Degree Days 19 14  
Month to date cooling degree days 164 112  
Year to date cooling degree days 1472 930  
Since 1 June cooling degree days 1145 791  
Growing Degree Days 34 (Base 50)    
Moisture  
Dew Point 63 °F    
Average Humidity 57    
Maximum Humidity 73    
Minimum Humidity 41    
Precipitation  
Precipitation T in 0.12 in 3.09 in (2013)
Month to date precipitation 1.61 1.02  
Year to date precipitation 19.27 26.40  
Snow  
Snow 0.00 in 0.00 in - ()
Month to date snowfall 0.0 0.0  
Since 1 June snowfall 0.0 0.0  
Since 1 July snowfall 0.0 0.0  
Snow Depth 0.00 in    
Sea Level Pressure  
Sea Level Pressure 29.95 in    
Wind  
Wind Speed 5 mph (SSE)    
Max Wind Speed 22 mph    
Max Gust Speed 31 mph    
Visibility 10 miles    
Events Rain , Thunderstorm    
T = Trace of Precipitation, MM = Missing Value Source: NWS Daily Summary

Daily Weather History Graph

Daily Weather History Graph

Search for Another Location

Airport or City:

Trip Planner

Search our weather history database for the weather conditions in past years. The results will help you decide how hot, cold, wet, or windy it might be!

Date:

Astronomy

Aug. 08, 2012 Rise Set
Actual Time 6:25 AM CDT 8:10 PM CDT
Civil Twilight 5:57 AM CDT 8:38 PM CDT
Nautical Twilight 5:24 AM CDT 9:11 PM CDT
Astronomical Twilight 4:48 AM CDT 9:47 PM CDT
Moon 11:40 PM CDT (8/8) 12:56 PM CDT (8/8)
Length of Visible Light 14h 40m
Length of Day
13h 44m
Waning Gibbous, 60% of the Moon is Illuminated
Aug 8
Waning Gibbous
Aug 9
Last Quarter
Aug 17
New
Aug 24
First Quarter
Aug 31
Full

Hourly Weather History & Observations

Time (CDT) Temp. Heat Index Dew Point Humidity Pressure Visibility Wind Dir Wind Speed Gust Speed Precip Events Conditions
12:53 AM 77.0 °F - 57.9 °F 52% 29.96 in 10.0 mi Calm Calm - N/A   Clear
1:53 AM 75.0 °F - 57.0 °F 53% 29.96 in 10.0 mi Calm Calm - N/A   Clear
2:53 AM 75.9 °F - 57.9 °F 54% 29.95 in 10.0 mi South 5.8 mph - N/A   Clear
3:53 AM 75.0 °F - 57.9 °F 55% 29.95 in 10.0 mi South 5.8 mph - N/A   Clear
4:53 AM 73.0 °F - 60.1 °F 64% 29.95 in 10.0 mi SE 3.5 mph - N/A   Clear
5:53 AM 73.0 °F - 59.0 °F 61% 29.96 in 10.0 mi SE 5.8 mph - N/A   Clear
6:53 AM 73.0 °F - 60.1 °F 64% 29.96 in 10.0 mi ESE 5.8 mph - N/A   Clear
7:53 AM 79.0 °F - 63.0 °F 58% 29.97 in 10.0 mi SSE 4.6 mph - N/A   Clear
8:53 AM 84.0 °F 86.5 °F 66.9 °F 56% 29.97 in 10.0 mi SSE 6.9 mph - N/A   Clear
9:53 AM 88.0 °F 92.1 °F 69.1 °F 53% 29.97 in 10.0 mi SSE 6.9 mph - N/A   Clear
10:53 AM 89.6 °F 94.7 °F 69.8 °F 52% 30.02 in 10.0 mi Variable 3.5 mph - N/A   Clear
11:53 AM 95.0 °F 99.5 °F 68.0 °F 41% 29.95 in - ESE 4.6 mph - N/A   Clear
12:53 PM 93.9 °F 97.5 °F 66.9 °F 41% 29.93 in 10.0 mi North 4.6 mph - N/A   Partly Cloudy
1:28 PM 93.2 °F 96.2 °F 66.2 °F 41% 29.98 in 10.0 mi ENE 3.5 mph - N/A Thunderstorm Thunderstorm
1:53 PM 91.0 °F 95.2 °F 68.0 °F 47% 29.93 in 10.0 mi SW 4.6 mph - N/A Thunderstorm Thunderstorm
2:53 PM 75.9 °F - 61.0 °F 60% 29.96 in 10.0 mi Variable 5.8 mph - 0.00 in Rain , Thunderstorm Light Rain
3:12 PM 80.6 °F 81.1 °F 59.0 °F 48% 29.98 in 10.0 mi Variable 4.6 mph - 0.00 in Rain Light Rain
3:53 PM 84.0 °F 84.9 °F 63.0 °F 49% 29.93 in 10.0 mi WSW 5.8 mph - 0.00 in   Clear
4:53 PM 86.0 °F 85.7 °F 60.1 °F 41% 29.93 in 10.0 mi South 5.8 mph - N/A   Clear
5:53 PM 82.9 °F 84.4 °F 64.0 °F 53% 29.92 in 10.0 mi South 4.6 mph - N/A   Clear
6:53 PM 82.9 °F 84.0 °F 63.0 °F 51% 29.92 in 10.0 mi East 3.5 mph - N/A   Clear
7:53 PM 79.0 °F - 64.0 °F 60% 29.95 in 10.0 mi WNW 5.8 mph - N/A   Mostly Cloudy
8:53 PM 78.1 °F - 62.1 °F 58% 29.86 in 10.0 mi South 6.9 mph - N/A   Partly Cloudy
9:53 PM 75.9 °F - 63.0 °F 64% 29.89 in 10.0 mi WSW 3.5 mph - N/A   Clear
10:53 PM 72.0 °F - 63.0 °F 73% 29.90 in 10.0 mi North 4.6 mph - N/A   Clear
11:53 PM 72.0 °F - 63.0 °F 73% 29.93 in 10.0 mi NNW 6.9 mph - N/A   Clear